Location: Treviso
(45.6669°N, 12.2430°E)
Time: 00:41:12
(UTC+02:00)

ISS - Pass Details

Date: 26 May 2017
Orbit: 402 x 408 km, 51.6° (Epoch: 30 May)

Event Time Altitude Azimuth Distance (km) Brightness Sun altitude
Rises 01:49:11 0° 295° (WNW) 2,333 0.2 -22.6°
Reaches altitude 10° 01:51:24 10° 306° (NW) 1,470 -0.7 -22.5°
Maximum altitude 01:54:27 33° 13° (NNE) 701 -2.1 -22.4°
Drops below altitude 10° 01:57:28 10° 80° (E) 1,464 -0.8 -22.3°
Sets 01:59:40 0° 90° (E) 2,321 0.2 -22.2°
